Station KYWF1 - 8724580 - Key West, FL Image indicating link to RSS feed of recent meteorological observations for station KYWF1


Conditions at KYWF1 as of
(5:18 pm EDT)
2118 GMT on 07/20/2024:
     

Click on the graph icon in the table below to see a time series plot of the last five days of that observation.

5-day plot - Wind Direction Wind Direction (WDIR): SE ( 130 deg true )
5-day plot - Wind Speed Wind Speed (WSPD): 9.9 kts
5-day plot - Wind Gust Wind Gust (GST): 13.0 kts
5-day plot - Atmospheric Pressure Atmospheric Pressure (PRES):30.07 in
5-day plot - Air Temperature Air Temperature (ATMP): 94.3 °F
5-day plot - Water Temperature Water Temperature (WTMP): 89.6 °F
5-day plot - Wind Speed at 10 Meters Wind Speed at 10 meters (WSPD10M): 9.7 kts
5-day plot - Wind Speed at 20 Meters Wind Speed at 20 meters (WSPD20M): 11.7 kts
5-day plot -  Wind Speed, Wind Gust and Atmospheric Pressure Combined plot of Wind Speed, Gust, and Air Pressure
NOS Water Level Observation Network Water Level
Previous observations
TIME
(EDT)
5-day plot - Wind Direction
WDIR
 
5-day plot - Wind Speed
WSPD
kts
5-day plot - Wind Gust
GST
kts
5-day plot - Wave Height
WVHT
ft
5-day plot - Dominant Wave Period
DPD
sec
5-day plot - Average Wave Period
APD
sec
5-day plot - Mean Wave Direction
MWD
 
5-day plot - Atmospheric Pressure
PRES
in
5-day plot - Pressure Tendency
PTDY
in
5-day plot - Air Temperature
ATMP
°F
5-day plot - Water Temperature
WTMP
°F
5-day plot - Dew Point
DEWP
°F
5-day plot - Salinity
SAL
psu
5-day plot - Visibility
VIS
nmi
5-day plot - Tide (above MLLW)
TIDE
ft
2024-07-20 05:12 pmESE 8.9 13.0----30.08- 94.1 89.6----
2024-07-20 05:06 pmESE 8.9 13.0----30.08- 93.0 89.6----
2024-07-20 05:00 pm SE 8.9 14.0----30.09-0.03- 89.6----
2024-07-20 04:54 pm SE 8.9 12.0----30.09-- 89.6----
2024-07-20 04:48 pm SE 9.9 14.0----30.09-- 89.8----
2024-07-20 04:42 pm SE 8.9 13.0----30.10-- 89.8----
2024-07-20 04:36 pm SE 8.9 14.0----30.10-- 90.0----
2024-07-20 04:30 pm SE 8.9 14.0----30.10- 93.4 89.8----
2024-07-20 04:24 pm SE 8.9 14.0----30.09- 93.4 89.8----
2024-07-20 04:18 pm SE 8.9 13.0----30.09- 93.7 90.0----
2024-07-20 04:12 pm SE 9.9 14.0----30.10- 93.6 90.0----
2024-07-20 04:06 pm SE 8.9 15.0----30.09- 93.4 90.0----
2024-07-20 04:00 pm SE 12.0 15.0------ 93.6 90.0----
2024-07-20 03:54 pmESE 9.9 15.0------ 94.3 90.0----
2024-07-20 03:48 pm SE 8.0 15.0----30.10-- 89.8----
2024-07-20 03:42 pm SE 8.9 15.0----30.11-- 90.0----
2024-07-20 03:36 pmESE 12.0 15.0----30.10-- 90.0----
2024-07-20 03:30 pm SE 13.0 17.1----30.11- 92.7 90.0----
2024-07-20 03:24 pmESE 8.0 15.9----30.11- 92.3 90.0----
2024-07-20 03:18 pm SE 8.9 14.0----30.11- 92.8-----
2024-07-20 03:12 pm SE 11.1 14.0----30.10- 93.6-----
2024-07-20 03:06 pm SE 6.0 12.0----30.10- 93.2-----
2024-07-20 03:00 pm SE 9.9 14.0----30.10-0.01 93.4 90.0----
2024-07-20 02:54 pm SE 12.0 17.1----30.10- 92.3 89.8----
2024-07-20 02:48 pm SE 11.1 15.9----30.10-------
2024-07-20 02:42 pmESE 11.1 15.9----30.11-------
2024-07-20 02:36 pmESE 8.9 14.0----30.11-------
2024-07-20 02:30 pmESE 13.0 15.9----30.11- 93.4 89.8----
2024-07-20 02:24 pm SE 8.9 14.0----30.11- 93.9 89.8----
2024-07-20 02:18 pm SE 8.0 13.0----30.11- 93.2 89.8----
2024-07-20 02:12 pm SE 7.0 12.0----30.11- 92.8 89.8----
2024-07-20 02:06 pm SE 8.9 12.0----30.11- 92.7 89.8----
2024-07-20 02:00 pm SE 8.0 13.0----30.11+0.00 92.3 89.8----
2024-07-20 01:54 pm SE 8.9 12.0----30.11- 92.1 90.0----
2024-07-20 01:48 pmESE 11.1 14.0----30.11- 93.2 89.4----
2024-07-20 01:42 pm SE 7.0 13.0----30.12- 92.8 89.4----
2024-07-20 01:36 pmESE 6.0 12.0----30.12- 92.8 89.6----
2024-07-20 01:30 pmESE 8.9 18.1----30.11- 92.5 89.6----
2024-07-20 01:24 pm SE 9.9 12.0----30.11- 93.0 89.6----
2024-07-20 01:18 pmESE 7.0 12.0----30.11- 93.0 89.6----
2024-07-20 01:12 pmESE 8.0 11.1----30.11- 92.5 89.6----
2024-07-20 01:06 pm SE 9.9 13.0----30.11- 91.9 89.6----
2024-07-20 01:00 pm SE 8.9 12.0----30.11+0.00 91.4 89.6----
2024-07-20 12:54 pmSSE 6.0 11.1----30.11- 90.3 89.6----
2024-07-20 12:48 pmSSE 8.9 12.0----30.11-- 89.6----
2024-07-20 12:42 pmSSE 11.1 15.9----30.12-- 89.4----
2024-07-20 12:36 pmSSE 8.0 9.9----30.12-- 89.4----
2024-07-20 12:30 pm SE 8.0 12.0----30.12- 91.9 89.6----
2024-07-20 12:24 pm SE 8.0 12.0----30.12- 92.1 89.6----
2024-07-20 12:18 pm SE 7.0 13.0----30.12- 92.8 89.4----
2024-07-20 12:12 pm SE 9.9 15.0----30.12- 92.3 89.4----
2024-07-20 12:06 pm SE 8.9 13.0----30.12- 91.9 89.4----
2024-07-20 12:00 pm SE 9.9 13.0----30.12+0.02- 89.4----
2024-07-20 11:54 amESE 7.0 14.0----30.11-- 89.4----
2024-07-20 11:48 am SE 12.0 15.0----30.11-- 89.4----
2024-07-20 11:42 amESE 8.0 15.0----30.11-- 89.4----
2024-07-20 11:36 am SE 8.0 15.0----30.12-- 89.4----
2024-07-20 11:30 amESE 7.0 12.0----30.12- 93.0 89.4----
2024-07-20 11:24 amESE 8.0 13.0----30.11- 92.5 89.4----
2024-07-20 11:18 amESE 8.0 13.0----30.11- 92.8 89.4----
2024-07-20 11:12 amESE 9.9 14.0----30.11- 92.5 89.4----
2024-07-20 11:06 amESE 8.0 12.0----30.11- 92.3 89.4----
2024-07-20 11:00 am SE 8.9 14.0----30.11+0.02 92.1 89.4----
2024-07-20 10:54 amESE 6.0 14.0----30.11- 92.1 89.4----
2024-07-20 10:48 amESE 8.0 13.0----30.11-- 89.4----
2024-07-20 10:42 amESE 11.1 13.0----30.11-- 89.2----
2024-07-20 10:36 amESE 7.0 12.0----30.11-- 89.2----
2024-07-20 10:30 am SE 8.0 13.0----30.11- 91.4 89.2----
2024-07-20 10:24 amESE 8.9 14.0----30.11- 91.4 89.2----
2024-07-20 10:18 amESE 8.0 12.0----30.11- 91.4 89.2----
2024-07-20 10:12 am SE 8.0 11.1----30.11- 91.8 89.2----
2024-07-20 10:06 amESE 7.0 13.0----30.11- 91.6 89.2----
2024-07-20 10:00 amESE 8.9 12.0----30.11+0.04- 89.2----
2024-07-20 09:54 amESE 8.0 12.0----30.11-- 89.2----
2024-07-20 09:48 am SE 7.0 13.0----30.11- 90.5 89.2----
2024-07-20 09:42 amESE 6.0 13.0----30.10- 90.0 89.2----
2024-07-20 09:36 am SE 8.9 12.0----30.10- 89.8 89.2----
2024-07-20 09:30 amESE 8.9 12.0----30.10- 89.8 89.2----
2024-07-20 09:24 amESE 7.0 13.0----30.10- 90.7 89.2----
2024-07-20 09:18 amESE 8.0 13.0----30.10- 90.0 89.2----
2024-07-20 09:12 amESE 7.0 12.0----30.10- 89.4 89.2----
2024-07-20 09:06 amESE 7.0 9.9----30.10- 90.3 89.2----
2024-07-20 09:00 am SE 8.0 14.0----30.09+0.05 89.6 89.2----
2024-07-20 08:54 am SE 11.1 14.0----30.09- 89.4 89.2----
2024-07-20 08:48 am SE 9.9 14.0----30.09- 89.8 89.2----
2024-07-20 08:42 amESE 8.9 12.0----30.09- 88.9 89.2----
2024-07-20 08:36 am SE 8.0 12.0----30.09- 87.3 89.2----
2024-07-20 08:30 am SE 7.0 12.0----30.09- 87.4 89.2----
2024-07-20 08:24 amESE 8.0 11.1----30.09- 87.8 89.2----
2024-07-20 08:18 amESE 8.0 12.0----30.09-- 89.2----
2024-07-20 08:12 amESE 4.1 11.1----30.09-- 89.2----
2024-07-20 08:06 am SE 8.9 11.1----30.09-- 89.2----
2024-07-20 08:00 amESE 6.0 12.0----30.09+0.03 87.1 89.2----
2024-07-20 07:54 amESE 6.0 11.1----30.08- 87.1 89.2----
2024-07-20 07:48 amESE 7.0 11.1----30.08-------
2024-07-20 07:42 amESE 7.0 9.9----30.08-------
2024-07-20 07:36 amESE 7.0 11.1----30.07-------
2024-07-20 07:30 amESE 6.0 11.1----30.07- 85.8 89.2----
2024-07-20 07:24 amESE 5.1 8.9----30.07- 86.0 89.2----
2024-07-20 07:18 amESE 6.0 9.9----30.07- 85.8 89.2----
2024-07-20 07:12 amESE 7.0 15.0----30.06- 85.6 89.2----
2024-07-20 07:06 amESE 8.9 15.0----30.06- 85.5 89.2----
2024-07-20 07:00 am-------30.06+0.01 85.3 89.2----
2024-07-20 06:54 am-------30.06- 85.3 89.2----
2024-07-20 06:48 amESE 7.0 9.9----30.06-- 89.2----
2024-07-20 06:42 am E 7.0 12.0----30.06-- 89.4----
2024-07-20 06:36 am E 6.0 11.1----30.06-- 89.4----
2024-07-20 06:30 am-------30.06- 85.5 89.4----
2024-07-20 06:24 am-------30.06- 85.5 89.4----
2024-07-20 06:18 amESE 8.9 15.0----30.05- 85.5 89.4----
2024-07-20 06:12 amESE 8.0 13.0----30.05- 85.5 89.4----
2024-07-20 06:06 amESE 8.0 13.0----30.05- 85.3 89.4----
2024-07-20 06:00 amESE 8.9 12.0----30.05-0.02 85.3 89.4----
2024-07-20 05:54 amESE 7.0 12.0----30.05- 85.3 89.4----
2024-07-20 05:48 am E 6.0 11.1----30.05- 85.3 89.4----
2024-07-20 05:42 am E 8.0 11.1----30.05- 85.3 89.4----
2024-07-20 05:36 am E 5.1 9.9----30.05- 85.1 89.4----
2024-07-20 05:30 amESE 5.1 9.9----30.05- 85.1 89.4----
2024-07-20 05:24 am E 7.0 11.1----30.05- 85.1 89.4----
2024-07-20 05:18 am E 6.0 9.9----30.06- 85.1 89.4----
2024-07-20 05:12 am E 5.1 8.9----30.06- 85.3 89.4----
2024-07-20 05:06 amESE 6.0 9.9----30.06- 85.1 89.4----
2024-07-20 05:00 am E 5.1 9.9----30.06-0.04 85.3 89.4----
2024-07-20 04:54 am E 5.1 8.0----30.06- 85.3 89.4----
2024-07-20 04:48 am E 5.1 8.9----30.06-- 89.4----
2024-07-20 04:42 am E 5.1 8.9----30.06-- 89.4----
2024-07-20 04:36 am E 2.9 7.0----30.06-- 89.4----
2024-07-20 04:30 am E 2.9 5.1----30.06- 85.1 89.4----
2024-07-20 04:24 am E 1.9 4.1----30.06- 85.1 89.4----
2024-07-20 04:18 am E 5.1 6.0----30.06-- 89.4----
2024-07-20 04:12 amESE 5.1 7.0----30.06-- 89.4----
2024-07-20 04:06 amESE 6.0 8.0----30.06-- 89.4----
2024-07-20 04:00 am E 4.1 7.0----30.06-0.06 85.3 89.4----
2024-07-20 03:54 am E 4.1 8.0----30.06- 85.3 89.4----
2024-07-20 03:48 amESE 2.9 7.0----30.06-- 89.4----
2024-07-20 03:42 amESE 6.0 8.9----30.06-- 89.4----
2024-07-20 03:36 am SE 5.1 9.9----30.06-- 89.4----
2024-07-20 03:30 amESE 5.1 8.0----30.06- 85.3 89.4----
2024-07-20 03:24 amESE 4.1 8.0----30.06- 85.3 89.4----
2024-07-20 03:18 am-------30.06- 85.3 89.4----
2024-07-20 03:12 am-------30.07- 85.3 89.4----
2024-07-20 03:06 am-------30.06- 85.3 89.4----
2024-07-20 03:00 am E 6.0 9.9----30.07-0.05 85.3 89.4----
2024-07-20 02:54 amESE 6.0 8.9----30.07- 85.3 89.4----
2024-07-20 02:48 am-------30.08- 85.5 89.4----
2024-07-20 02:42 am-------30.08- 85.5 89.6----
2024-07-20 02:36 am-------30.08- 85.6 89.6----
2024-07-20 02:30 amESE 4.1 9.9----30.09- 85.6 89.4----
2024-07-20 02:24 amESE 8.0 12.0----30.09- 85.5 89.6----
2024-07-20 02:18 amESE 8.0 12.0----30.09- 85.6 89.6----
2024-07-20 02:12 am SE 8.0 12.0----30.09- 85.6 89.4----
2024-07-20 02:06 amESE 6.0 11.1----30.10- 85.6 89.4----
2024-07-20 02:00 amESE 8.0 9.9----30.10-0.02 85.6 89.6----
2024-07-20 01:54 amESE 7.0 8.9----30.10- 85.6 89.6----
2024-07-20 01:48 amESE 6.0 8.9----30.10- 85.6 89.4----
2024-07-20 01:42 amESE 8.0 11.1----30.10- 85.8 89.6----
2024-07-20 01:36 amESE 5.1 9.9----30.10- 85.8 89.6----
2024-07-20 01:30 amESE 6.0 9.9----30.10- 85.8 89.6----
2024-07-20 01:24 amESE 6.0 8.9----30.11- 85.8 89.6----
2024-07-20 01:18 amESE 6.0 8.9----30.11- 85.8 89.6----
2024-07-20 01:12 amESE 6.0 9.9----30.11- 85.8 89.6----
2024-07-20 01:06 amESE 5.1 8.0----30.11- 85.8 89.6----
2024-07-20 01:00 amESE 4.1 7.0----30.11+0.01 85.8 89.6----
2024-07-20 12:54 amESE 6.0 9.9----30.11- 85.8 89.6----
2024-07-20 12:48 amESE 6.0 8.9----30.11-- 89.6----
2024-07-20 12:42 amESE 6.0 9.9----30.12-- 89.8----
2024-07-20 12:36 am SE 7.0 12.0----30.12-- 89.8----
2024-07-20 12:30 amESE 6.0 11.1----30.12- 86.0 89.8----
2024-07-20 12:24 amESE 8.0 11.1----30.12- 86.2 89.8----
2024-07-20 12:18 amESE 7.0 12.0----30.12- 86.0 89.8----
2024-07-20 12:12 amESE 7.0 11.1----30.12- 86.2 89.8----
2024-07-20 12:06 am SE 7.0 12.0----30.12- 86.2 89.8----
2024-07-20 12:00 am SE 7.0 11.1----30.12+0.04 86.0 89.8----
2024-07-19 11:54 pmESE 8.0 11.1----30.12- 86.0 89.8----
2024-07-19 11:48 pmESE 6.0 12.0----30.12- 86.0 89.8----
2024-07-19 11:42 pmESE 8.0 12.0----30.12- 86.2 89.8----
2024-07-19 11:36 pmESE 7.0 11.1----30.12- 86.0 89.8----
2024-07-19 11:30 pmESE 5.1 9.9----30.12- 86.2 89.8----
2024-07-19 11:24 pmESE 7.0 11.1----30.12- 86.2 89.8----
2024-07-19 11:18 pm SE 8.0 11.1----30.12- 86.2 89.8----
2024-07-19 11:12 pmESE 7.0 8.9----30.11- 86.2 89.8----
2024-07-19 11:06 pm SE 6.0 11.1----30.11- 86.2 89.8----
2024-07-19 11:00 pmESE 7.0 11.1----30.12+0.06 86.2 89.8----
2024-07-19 10:54 pm SE 6.0 8.9----30.12- 86.2 89.8----
2024-07-19 10:48 pm SE 6.0 9.9----30.12-- 89.8----
2024-07-19 10:42 pmESE 7.0 8.9----30.11-- 89.8----
2024-07-19 10:36 pmESE 6.0 8.0----30.11-- 89.8----
2024-07-19 10:30 pmESE 6.0 9.9----30.11- 86.2 89.8----
2024-07-19 10:24 pmESE 4.1 8.9----30.11- 86.4 89.8----
2024-07-19 10:18 pmESE 5.1 8.0----30.11- 86.4 89.8----
2024-07-19 10:12 pmESE 5.1 8.9----30.11- 86.4 89.8----
2024-07-19 10:06 pm SE 5.1 8.0----30.10- 86.4 89.8----
2024-07-19 10:00 pmESE 4.1 12.0----30.10+0.06 86.4 89.8----
2024-07-19 09:54 pmESE 6.0 8.0----30.10- 86.5 89.8----
2024-07-19 09:48 pmESE 6.0 11.1----30.10- 86.4 89.8----
2024-07-19 09:42 pm SE 6.0 8.9----30.10- 86.4 89.8----
2024-07-19 09:36 pm SE 6.0 8.9----30.10- 86.4 89.6----
2024-07-19 09:30 pmESE 6.0 8.0----30.10- 86.5 89.6----
2024-07-19 09:24 pm SE 5.1 8.0----30.09- 86.5 89.4----
2024-07-19 09:18 pmESE 6.0 8.0----30.09- 86.5 89.4----
2024-07-19 09:12 pm SE 6.0 8.9----30.09- 86.5 89.2----
2024-07-19 09:06 pm SE 6.0 8.0----30.09- 86.5 89.2----
2024-07-19 09:00 pm SE 5.1 8.0----30.09+0.04 86.5 89.1----
2024-07-19 08:54 pmESE 5.1 7.0----30.08- 86.5 89.1----
2024-07-19 08:48 pmESE 4.1 7.0----30.08- 86.7 89.1----
2024-07-19 08:42 pmESE 5.1 7.0----30.08- 86.7 89.1----
2024-07-19 08:36 pmESE 2.9 7.0----30.08- 86.7 89.1----
2024-07-19 08:30 pmESE 4.1 7.0----30.07- 86.9 89.2----
2024-07-19 08:24 pmESE 6.0 9.9----30.07- 87.1 89.2----
2024-07-19 08:18 pmESE 6.0 8.9----30.07-- 89.2----
2024-07-19 08:12 pmESE 6.0 9.9----30.07-- 89.2----
2024-07-19 08:06 pm SE 5.1 8.9----30.06-- 89.2----
2024-07-19 08:00 pmESE 5.1 8.9----30.05+0.00 89.4 89.2----
2024-07-19 07:54 pm SE 6.0 9.9----30.05- 90.3 89.2----
2024-07-19 07:48 pmESE 5.1 8.9----30.05- 91.0 89.2----
2024-07-19 07:42 pmESE 5.1 8.9----30.05- 91.8 89.2----
2024-07-19 07:36 pm SE 6.0 8.0----30.05- 91.8 89.2----
2024-07-19 07:30 pm SE 5.1 7.0----30.05- 92.1 89.2----
2024-07-19 07:24 pm SE 6.0 8.9----30.06- 91.6 89.2----
2024-07-19 07:18 pm SE 5.1 8.9----30.05- 92.1 89.2----
2024-07-19 07:12 pm SE 4.1 9.9----30.05- 92.5 89.2----
2024-07-19 07:06 pm SE 6.0 8.9----30.05- 93.0 89.4----
2024-07-19 07:00 pm SE 5.1 9.9----30.05-0.02- 89.4----
2024-07-19 06:54 pm E 6.0 8.0----30.05-- 89.4----
2024-07-19 06:48 pmESE 6.0 9.9----30.05- 93.0 89.4----
2024-07-19 06:42 pm SE 6.0 9.9----30.04- 93.0 89.4----
2024-07-19 06:36 pm SE 7.0 9.9----30.05- 93.0 89.4----
2024-07-19 06:30 pm SE 7.0 9.9----30.05-- 89.4----
2024-07-19 06:24 pm SE 7.0 8.9----30.05-- 89.4----
2024-07-19 06:18 pm SE 5.1 8.9----30.05-- 89.4----
2024-07-19 06:12 pmSSE 5.1 8.9----30.05-- 89.4----
2024-07-19 06:06 pmESE 6.0 8.0----30.05-- 89.4----
2024-07-19 06:00 pmESE 5.1 8.9----30.05-0.03 93.9 89.2----
2024-07-19 05:54 pm SE 6.0 8.9----30.05- 93.6 89.2----
2024-07-19 05:48 pmESE 6.0 8.0----30.04- 93.2 89.2----
2024-07-19 05:42 pm SE 5.1 8.0----30.04- 93.6 89.2----
2024-07-19 05:36 pmESE 5.1 7.0----30.05- 93.6 89.2----
2024-07-19 05:30 pm SE 5.1 8.0----30.05- 93.0 89.1----
2024-07-19 05:24 pmSSE 6.0 11.1----30.05- 91.8 89.1----
2024-07-19 05:18 pmSSE 5.1 8.9----30.05- 92.1 89.1----
2024-07-19 05:12 pm SE 7.0 8.9----30.05- 92.1 89.1----
2024-07-19 05:06 pmESE 6.0 8.9----30.05- 92.1 89.2----
2024-07-19 05:00 pm SE 7.0 9.9----30.05-0.04 92.5 89.2----
2024-07-19 04:54 pm SE 7.0 9.9----30.05- 92.8 89.2----